Gainesville, FL

10:51 AM EST on December 13, 2019 (GMT -0500)
Gainesville Regional

Weather History for KGNV - October, 2019

Change the Weather History Date:

Thursday, October 10, 2019

  Actual Average Record
Temperature  
Mean Temperature 77 °F 73 °F  
Max Temperature 87 °F 83 °F 93 °F (1911)
Min Temperature 66 °F 63 °F 46 °F (1910)
Degree Days  
Heating Degree Days 0 0  
Month to date heating degree days 0 0  
Since 1 July heating degree days 0 0  
Cooling Degree Days 12 8  
Month to date cooling degree days 130 92  
Year to date cooling degree days 3146 2432  
Growing Degree Days 26 (Base 50)    
Moisture  
Dew Point 65 °F    
Average Humidity 71    
Maximum Humidity 93    
Minimum Humidity 48    
Precipitation  
Precipitation 0.00 in 0.10 in 1.89 in (1971)
Month to date precipitation 1.86 1.21  
Year to date precipitation 40.10 41.20  
Snow  
Snow 0.00 in 0.00 in 0.00 in ()
Month to date snowfall 0.0 0.0  
Since 1 July snowfall 0.0 0.0  
Since 1 September snowfall 0.0 0.0  
Snow Depth 0.00 in    
Sea Level Pressure  
Sea Level Pressure 30.06 in    
Wind  
Wind Speed 10 mph (NNE)    
Max Wind Speed 20 mph    
Max Gust Speed 25 mph    
Visibility 10 miles    
Events      
T = Trace of Precipitation, MM = Missing Value Source: NWS Daily Summary

Daily Weather History Graph

Daily Weather History Graph

Search for Another Location

Airport or City:

Astronomy

Oct. 10, 2019 Rise Set
Actual Time 7:27 AM EDT 7:04 PM EDT
Civil Twilight 7:03 AM EDT 7:28 PM EDT
Nautical Twilight 6:35 AM EDT 7:55 PM EDT
Astronomical Twilight 6:08 AM EDT 8:23 PM EDT
Moon 5:46 PM EDT (10/10) 4:31 AM EDT (10/10)
Length of Visible Light 12h 24m
Length of Day
11h 36m
Waxing Gibbous, 91% of the Moon is Illuminated
Oct 10
Waxing Gibbous
Oct 13
Full
Oct 21
Last Quarter
Oct 27
New
Nov 4
First Quarter

Hourly Weather History & Observations

Time (EDT) Temp. Heat Index Dew Point Humidity Pressure Visibility Wind Dir Wind Speed Gust Speed Precip Events Conditions
12:53 AM 68.0 °F - 64.0 °F 87% 30.06 in 10.0 mi North 3.5 mph - N/A   Clear
1:53 AM 66.0 °F - 64.0 °F 93% 30.06 in 10.0 mi NNW 3.5 mph - N/A   Clear
2:53 AM 66.9 °F - 64.0 °F 90% 30.05 in 10.0 mi North 5.8 mph - N/A   Clear
3:53 AM 66.9 °F - 64.0 °F 90% 30.04 in 10.0 mi North 5.8 mph - N/A   Clear
4:53 AM 66.0 °F - 64.0 °F 93% 30.03 in 10.0 mi North 5.8 mph - N/A   Clear
5:53 AM 66.9 °F - 64.0 °F 90% 30.04 in 10.0 mi North 5.8 mph - N/A   Clear
6:45 AM 66.9 °F - 64.0 °F 90% 30.06 in 10.0 mi North 4.6 mph - N/A   Clear
6:53 AM 66.0 °F - 64.0 °F 93% 30.06 in 10.0 mi NNW 4.6 mph - N/A   Clear
7:29 AM 66.0 °F - 64.0 °F 93% 30.07 in 5.0 mi North 4.6 mph - N/A   Mostly Cloudy
7:53 AM 66.9 °F - 64.0 °F 90% 30.07 in 5.0 mi North 5.8 mph - N/A   Mostly Cloudy
8:37 AM 69.1 °F - 64.9 °F 87% 30.08 in 10.0 mi NNE 8.1 mph - N/A   Clear
8:53 AM 70.0 °F - 66.0 °F 87% 30.08 in 10.0 mi NNE 9.2 mph - N/A   Clear
9:53 AM 77.0 °F - 68.0 °F 74% 30.09 in 10.0 mi NE 13.8 mph - N/A   Clear
10:53 AM 80.1 °F 82.7 °F 68.0 °F 67% 30.09 in 10.0 mi ENE 13.8 mph - N/A   Scattered Clouds
11:22 AM 81.0 °F 83.8 °F 68.0 °F 65% 30.09 in 10.0 mi NE 15.0 mph 21.9 mph N/A   Mostly Cloudy
11:53 AM 81.0 °F 83.3 °F 66.9 °F 62% 30.09 in 10.0 mi ENE 12.7 mph 19.6 mph N/A   Mostly Cloudy
12:53 PM 84.0 °F 86.5 °F 66.9 °F 56% 30.07 in 10.0 mi NNE 12.7 mph - N/A   Mostly Cloudy
1:00 PM 84.9 °F 87.6 °F 66.9 °F 55% 30.07 in 10.0 mi NNE 16.1 mph - N/A   Mostly Cloudy
1:53 PM 84.0 °F 85.8 °F 64.9 °F 53% 30.05 in 10.0 mi ENE 17.3 mph 21.9 mph N/A   Partly Cloudy
2:53 PM 86.0 °F 87.6 °F 64.9 °F 49% 30.02 in 10.0 mi NE 15.0 mph - N/A   Partly Cloudy
3:53 PM 84.9 °F 86.6 °F 64.9 °F 51% 30.02 in 10.0 mi ENE 17.3 mph - N/A   Clear
4:53 PM 82.9 °F 84.6 °F 64.9 °F 54% 30.02 in 10.0 mi East 15.0 mph - N/A   Clear
5:53 PM 81.0 °F 82.7 °F 64.9 °F 58% 30.03 in 10.0 mi ENE 15.0 mph - N/A   Partly Cloudy
6:53 PM 77.0 °F - 66.0 °F 69% 30.04 in 10.0 mi NE 9.2 mph - N/A   Clear
7:53 PM 73.9 °F - 66.0 °F 76% 30.04 in 10.0 mi NE 11.5 mph - N/A   Clear
8:53 PM 72.0 °F - 66.0 °F 81% 30.05 in 10.0 mi NE 10.4 mph - N/A   Clear
9:53 PM 70.0 °F - 64.9 °F 84% 30.07 in 10.0 mi NE 6.9 mph - N/A   Clear
10:53 PM 69.1 °F - 64.9 °F 87% 30.08 in 10.0 mi NE 4.6 mph - N/A   Clear
11:53 PM 68.0 °F - 64.0 °F 87% 30.08 in 10.0 mi NNE 4.6 mph - N/A   Clear